Regional Weather Roundup
Issued by NWS

Home | Current Version | Previous Version | Text Only | Print | Product List | Glossary Off
Versions: 1 2 3 4 5 6 7 8 9 10 11 12 13 14 15 16 17 18 19 20 21 22 23 24 25 26 27 28 29 30 31 32 33 34 35 36 37 38 39 40 41 42 43 44 45 46 47 48 49 50

029
ASUS44 KJAN 180403
RWRMS

MISSISSIPPI HOURLY WEATHER ROUNDUP
NATIONAL WEATHER SERVICE JACKSON MS
1100 PM CDT FRI APR 17 2015

NOTE: "FAIR: INDICATES FEW OR NO CLOUDS BELOW 12,000 FEET WITH NO
SIGNIFICANT WEATHER AND/OR OBSTRUCTIONS TO VISIBILITY.

MSZ001>002-007>008-010>013-018>021-025>028-034>036-180500-
NORTHWEST MISSISSIPPI

CITY           SKY/WX    TMP DP  RH WIND       PRES   REMARKS
CLARKSDALE       N/A     66  66 100 E7        30.01S
CLEVELAND      FAIR      67  65  95 E7        29.99F
GREENWOOD      MOCLDY    66  62  87 SE5       29.99F
GREENVILLE     CLOUDY    69  64  84 E9        29.96F
OLIVE BRANCH   CLEAR     63 N/A N/A E6        30.02F
OXFORD         FAIR      63  61  94 NE6       30.03F
TUNICA         MOCLDY    64  63  94 E5        30.02F
$$

MSZ003>006-009-014>017-022>024-029>033-037>039-180500-
NORTHEAST MISSISSIPPI

CITY           SKY/WX    TMP DP  RH WIND       PRES   REMARKS
COLUMBUS AFB   FOG       62  62 100 CALM      30.00F VSB 1
CORINTH        CLOUDY    64  61  88 CALM      30.02S
GOLDN TRIANGLE MOCLDY    63  61  94 CALM      30.00F
STARKVILLE     FAIR      63  61  94 CALM      30.01F
TUPELO         MOCLDY    61  59  93 NE3       30.01F
$$

MSZ040-058-180500-
CENTRAL MISSISSIPPI

CITY           SKY/WX    TMP DP  RH WIND       PRES   REMARKS
JACKSON INTL   CLOUDY    68  65  90 E7        29.97S
JACKSON HAWKNS CLOUDY    69  65  86 E7        29.98R
MERIDIAN KEY   MOCLDY    62  61  96 N5        29.98F
MERIDIAN NAS   CLOUDY    65  62  90 NE5       30.00S
RAYMOND        FAIR      68  63  83 CALM      29.96F
VICKSBURG      CLOUDY    67  63  87 N3        29.96R
$$

MSZ059>079-180500-
SOUTH MISSISSIPPI

CITY           SKY/WX    TMP DP  RH WIND       PRES   REMARKS
BROOKHAVEN       N/A     66  66 100 CALM      29.99R
HATTIESBURG    CLOUDY    70  67  90 E5        29.97S
MCCOMB         MOCLDY    68  66  93 CALM      29.97R
NATCHEZ        MOCLDY    66  64  94 CALM      29.97S
PINE BELT      CLOUDY    68  64  88 NE7       29.98S
$$

MSZ080>082-180500-
COASTAL MISSISSIPPI

CITY           SKY/WX    TMP DP  RH WIND       PRES   REMARKS
BILOXI         MOCLDY    74  74 100 SW7       29.94F
PASCAGOULA     MOCLDY    73  71  93 CALM      29.94F
GULFPORT       MOCLDY    73  70  90 CALM      29.94F
$$



USA.gov is the U.S. government's official web portal to all federal, state and local government web resources and services.